Regional Weather Roundup
Issued by NWS

Home | Current Version | Previous Version | Text Only | Print | Product List | Glossary Off
Versions: 1 2 3 4 5 6 7 8 9 10 11 12 13 14 15 16 17 18 19 20 21 22 23 24 25 26 27 28 29 30 31 32 33 34 35 36 37 38 39 40 41 42 43 44 45 46 47 48 49 50

000
ASUS45 KCYS 290910
RWRWY

WYOMING REGIONAL WEATHER ROUNDUP
NATIONAL WEATHER SERVICE CHEYENNE WY
300 AM MDT WED JUL 29 2015

NOTE:  "FAIR" INDICATES FEW OR NO CLOUDS BELOW 12,000 FEET
WITH NO SIGNIFICANT WEATHER AND/OR OBSTRUCTIONS TO VISIBILITY.

WYZ001-291000-
YELLOWSTONE NATIONAL PARK

CITY           SKY/WX    TMP DP  RH WIND       PRES   REMARKS
LK YELLOWSTONE   N/A     29  27  92 NW3       30.47S
W YELLOWSTONE  NOT AVBL

$$
WYZ002>013-054>058-071-098>099-291000-
NORTHERN WYOMING

CITY           SKY/WX    TMP DP  RH WIND       PRES   REMARKS
JACKSON        FAIR      37  34  87 NE5       30.42S WCI  34
CODY           FAIR      52  34  50 SE3       30.32R
GREYBULL       FAIR      50  37  61 CALM      30.26S
WORLAND        FAIR      50  31  48 S6        30.28R
SHERIDAN       FAIR      54  33  45 SW6       30.25S
BUFFALO        FAIR      51  33  50 W8        30.30S
GILLETTE       FAIR      53  36  52 W9        30.25S
HULETT         FAIR      50  36  57 SW9       30.25R
NEWCASTLE      FAIR      46  36  66 CALM      30.29R

$$
WYZ014>020-022>026-101>103-291000-
CENTRAL WYOMING

CITY           SKY/WX    TMP DP  RH WIND       PRES   REMARKS
BIG PINEY      FAIR      41  28  60 S5        30.42S
PINEDALE       FAIR      34  30  86 NW5       30.42S WCI  30
DUBOIS         FAIR      36  28  75 W12       30.41F WCI  27
LANDER         FAIR      51  29  42 SW12      30.33F
RIVERTON       FAIR      50  29  44 NW8       30.34S
CASPER         FAIR      45  30  55 N5        30.33F
DOUGLAS        FAIR      45  31  58 NW3       30.33S

$$
WYZ021-027>030-104>119-291000-
SOUTHERN WYOMING

CITY           SKY/WX    TMP DP  RH WIND       PRES   REMARKS
EVANSTON       FAIR      50  27  40 NE3       30.41S
KEMMERER       FAIR      39  32  75 NW9       30.42S WCI  33
FORT BRIDGER   SUNNY     48  23  37 W5        30.43S
ROCK SPRINGS   FAIR      50  24  36 E7        30.38S
DIXON          FAIR      45  23  42 E3        30.37R
RAWLINS        FAIR      43  20  39 NW6       30.36S
SARATOGA       FAIR      41  23  48 S6        30.37F
LARAMIE        FAIR      50  25  37 E5        30.37F
CHEYENNE       FAIR      56  30  37 CALM      30.34S
TORRINGTON     FAIR      52  39  61 NW5       30.27R
PINE BLUFFS    FAIR      45  37  76 CALM      30.31S

$$



USA.gov is the U.S. government's official web portal to all federal, state and local government web resources and services.